TimePDT,TemperatureF,Dew PointF,Humidity,Sea Level PressureIn,VisibilityMPH,Wind Direction,Wind SpeedMPH,Gust SpeedMPH,PrecipitationIn,Events,Conditions,WindDirDegrees,DateUTC
12:56 AM,48.9,45.0,86,29.87,10.0,North,4.6,-,N/A,,Clear,350,2012-10-11 07:56:00
1:56 AM,48.0,44.1,86,29.88,10.0,North,6.9,-,N/A,,Clear,360,2012-10-11 08:56:00
2:56 AM,48.9,45.0,86,29.86,10.0,NNE,3.5,-,N/A,Thunderstorm,Mostly Cloudy,20,2012-10-11 09:56:00
3:10 AM,48.2,46.4,93,29.99,8.0,Calm,Calm,-,0.02,Rain,Rain,0,2012-10-11 10:10:00
3:56 AM,48.9,45.0,86,29.87,10.0,North,5.8,-,0.09,,Mostly Cloudy,360,2012-10-11 10:56:00
5:56 AM,50.0,46.9,89,29.87,5.0,Calm,Calm,-,0.07,Rain,Rain,0,2012-10-11 12:56:00
6:07 AM,50.0,46.4,87,29.99,6.0,SE,3.5,-,0.04,Rain,Rain,140,2012-10-11 13:07:00
6:27 AM,48.2,46.4,93,29.99,6.0,SSW,15.0,19.6,0.11,Rain,Rain,210,2012-10-11 13:27:00
6:54 AM,46.4,44.6,93,29.99,5.0,SW,6.9,-,0.19,Rain,Rain,220,2012-10-11 13:54:00
6:56 AM,46.9,45.0,93,29.89,6.0,SW,5.8,-,0.19,Rain,Rain,220,2012-10-11 13:56:00
7:26 AM,46.4,44.6,93,29.99,6.0,Calm,Calm,-,0.04,Rain,Rain,0,2012-10-11 14:26:00
7:56 AM,46.9,44.1,90,29.91,10.0,Calm,Calm,-,0.07,Rain,Light Rain,0,2012-10-11 14:56:00
8:22 AM,46.4,44.6,93,30.00,9.0,East,8.1,-,0.03,Rain,Light Rain,90,2012-10-11 15:22:00
8:56 AM,46.9,45.0,93,29.92,10.0,NE,4.6,-,0.05,Rain,Rain,50,2012-10-11 15:56:00
9:06 AM,48.2,44.6,87,30.01,10.0,ENE,5.8,-,0.01,Rain,Light Rain,60,2012-10-11 16:06:00
9:35 AM,48.2,46.4,93,30.00,10.0,ESE,10.4,-,0.03,Rain,Light Rain,110,2012-10-11 16:35:00
9:56 AM,48.9,46.9,93,29.92,10.0,SE,8.1,-,0.03,,Overcast,140,2012-10-11 16:56:00
10:20 AM,50.0,46.4,87,30.01,10.0,SE,9.2,-,0.00,,Overcast,130,2012-10-11 17:20:00
10:47 AM,50.0,46.4,87,30.01,10.0,South,6.9,-,0.00,Rain,Light Rain,170,2012-10-11 17:47:00
10:56 AM,50.0,46.9,89,29.92,9.0,SSE,6.9,-,0.00,Rain,Light Rain,160,2012-10-11 17:56:00
11:56 AM,52.0,48.9,89,29.91,10.0,ESE,11.5,-,0.02,Rain,Light Rain,110,2012-10-11 18:56:00
12:56 PM,52.0,46.0,80,29.91,10.0,ESE,15.0,-,0.00,Rain,Light Rain,110,2012-10-11 19:56:00
1:56 PM,55.0,44.1,67,29.87,10.0,East,8.1,-,0.01,,Mostly Cloudy,90,2012-10-11 20:56:00
2:56 PM,55.9,42.1,60,29.86,10.0,ESE,6.9,-,N/A,,Overcast,110,2012-10-11 21:56:00
4:26 PM,51.8,44.6,76,29.95,10.0,SSE,9.2,16.1,0.00,Rain-Thunderstorm,Light Rain,160,2012-10-11 23:26:00
4:41 PM,50.0,44.6,82,29.96,8.0,South,5.8,-,0.01,Rain,Light Rain,180,2012-10-11 23:41:00
4:56 PM,50.0,44.1,80,29.88,6.0,South,10.4,-,0.05,Rain,Light Rain,170,2012-10-11 23:56:00
5:14 PM,46.4,44.6,93,29.97,2.5,South,9.2,-,0.06,Rain,Rain,170,2012-10-12 00:14:00
5:22 PM,46.4,44.6,93,29.98,6.0,SSE,5.8,-,0.06,Rain,Light Rain,160,2012-10-12 00:22:00
6:56 PM,46.0,43.0,89,29.92,10.0,ESE,9.2,-,0.07,Rain,Light Rain,110,2012-10-12 01:56:00
7:06 PM,46.4,42.8,87,30.00,10.0,ESE,10.4,-,0.01,Rain,Light Rain,110,2012-10-12 02:06:00
7:56 PM,45.0,42.1,90,29.94,10.0,East,5.8,-,0.07,Rain,Light Rain,100,2012-10-12 02:56:00
9:56 PM,45.0,41.0,86,29.93,10.0,East,8.1,-,0.01,,Overcast,90,2012-10-12 04:56:00
10:56 PM,46.0,42.1,86,29.92,10.0,NNE,6.9,-,N/A,,Overcast,30,2012-10-12 05:56:00
11:56 PM,45.0,41.0,86,29.94,10.0,South,3.5,-,N/A,,Mostly Cloudy,190,2012-10-12 06:56:00